Theta_e
355 356 354 353 354 356 357 357 357 358 359 358 357 355 355 355 358 357 355 357 356 355 355 354 354 354 351 353 354 352 351 352 352 353 354 356 358 360 359 358 357 356 356 354 358 357 357 357 356 356 356 356 356 356 355 356 355 355 354 355 354 354 354 353 353 353 353 353 352 352 352 352 352 352 351 352 352 352 352 352 353 353 352 352 352
354 355 355 353 353 355 358 357 357 358 358 357 357 356 355 356 356 358 354 355 355 356 356 353 352 353 352 351 353 352 352 351 351 353 355 356 358 360 358 358 359 357 357 356 357 358 358 357 357 356 355 356 356 356 355 355 355 355 355 354 354 354 353 353 352 353 352 353 353 353 352 352 352 352 352 353 352 352 352 351 352 352 353 353 352
354 355 356 355 354 355 356 357 356 357 358 356 357 358 357 357 357 357 356 354 355 357 358 355 353 351 351 350 351 353 352 352 351 352 353 356 358 359 360 359 358 357 358 357 357 357 357 355 357 356 356 355 356 355 355 355 355 355 355 355 354 354 353 353 352 352 353 353 353 353 353 352 352 352 353 353 353 353 352 352 351 352 352 352 352
354 355 356 355 354 354 355 356 356 356 359 357 357 360 360 358 360 359 359 357 354 353 359 354 352 349 349 348 351 352 352 352 350 351 353 355 357 359 360 359 358 359 358 358 357 357 357 356 356 356 356 356 356 355 356 355 354 355 355 354 354 354 354 354 353 353 353 353 353 353 353 353 353 353 353 353 353 353 353 352 352 352 353 352 352
354 355 360 355 355 354 354 357 356 356 357 359 359 360 360 360 358 361 354 352 353 353 356 351 350 349 347 348 350 351 352 352 351 351 352 354 356 358 359 361 361 359 359 358 358 356 357 356 356 357 357 357 356 356 356 356 355 354 354 354 354 354 354 354 354 354 353 353 353 353 352 352 352 353 352 353 353 353 353 353 352 352 352 353 353
354 354 357 354 354 354 354 355 356 356 357 359 358 359 359 358 357 357 360 356 352 353 350 351 350 349 346 347 350 351 352 351 351 351 352 354 356 357 358 359 361 360 360 359 358 357 357 356 356 356 357 357 357 357 355 353 353 353 353 355 355 354 355 353 354 354 355 354 354 354 353 353 352 352 352 353 352 353 352 352 352 353 352 353 353
355 354 355 354 353 353 353 354 356 357 356 358 357 357 357 357 358 355 353 354 353 357 349 349 349 349 348 347 349 350 352 352 351 350 351 354 355 356 357 358 359 360 360 361 357 357 359 357 355 355 357 357 356 356 354 354 352 354 355 356 356 355 355 355 353 352 354 354 352 353 353 353 351 353 352 353 352 352 352 352 352 352 353 352 353
357 355 354 354 353 353 353 355 357 357 356 357 357 355 356 355 357 355 352 352 358 351 351 351 351 351 349 345 348 352 351 352 351 350 351 354 355 355 357 357 358 358 361 360 360 360 358 357 357 356 356 357 355 355 353 354 354 354 354 355 355 356 354 354 354 353 353 354 353 353 353 353 352 353 353 352 352 352 352 352 352 352 352 352 351
357 355 354 354 353 353 353 355 358 356 356 357 357 357 355 355 356 359 354 352 351 350 350 350 350 349 345 342 346 352 350 351 351 352 353 353 353 354 356 356 357 359 360 359 359 359 358 358 358 357 358 356 355 355 356 356 356 356 356 356 356 355 355 354 354 353 353 354 353 353 353 353 353 353 352 352 352 352 352 352 351 351 351 351 351
357 355 354 355 354 354 354 355 358 357 356 357 357 357 356 355 354 356 356 354 351 349 348 349 350 346 344 343 345 349 348 350 353 356 353 352 353 353 355 356 357 357 359 359 357 359 359 358 359 359 358 358 357 356 356 356 355 355 355 355 356 355 355 354 354 354 354 354 353 354 353 353 353 352 352 352 352 351 352 351 351 351 351 351 351
357 357 354 356 356 355 355 356 358 357 356 357 357 357 357 354 353 353 357 354 352 350 350 349 346 344 341 343 345 347 348 351 354 353 352 352 352 354 354 355 356 357 357 358 357 357 358 359 359 359 359 358 358 358 357 356 357 356 356 356 356 356 355 355 355 354 354 354 354 353 353 353 353 352 352 352 352 351 351 351 351 351 351 351 351
357 356 355 356 355 355 356 357 358 357 356 356 356 355 355 355 353 352 352 358 358 352 350 348 341 341 345 342 344 346 348 352 351 351 352 351 353 356 354 354 355 356 356 356 357 356 356 357 359 358 358 358 358 358 358 356 357 357 356 356 356 356 355 355 355 354 354 354 354 353 353 353 352 352 352 351 350 351 350 350 350 351 351 351 347
358 356 355 359 356 356 356 358 358 357 356 356 357 356 355 355 356 357 355 354 353 354 350 342 341 339 337 338 341 346 351 351 348 348 349 350 352 353 354 354 353 353 355 355 355 355 355 355 356 357 357 358 358 358 358 358 357 357 357 357 356 356 355 355 355 355 354 354 354 353 353 352 352 351 350 349 349 350 349 349 349 350 351 347 345
360 356 356 357 354 356 356 357 358 357 357 358 357 358 357 355 356 354 357 353 352 352 350 344 339 336 335 334 338 340 348 346 345 345 347 348 350 352 352 352 352 352 353 354 353 352 352 353 354 355 355 356 356 357 359 359 359 357 357 356 356 355 355 355 355 355 354 353 352 352 351 351 351 350 349 347 348 349 347 347 349 349 347 345 344
359 358 355 357 355 356 357 358 358 358 358 357 357 356 356 355 355 353 353 353 355 356 351 344 340 337 337 337 329 333 341 340 342 343 343 345 347 348 350 351 351 353 353 353 353 352 352 352 352 353 353 354 354 355 356 358 358 358 358 357 356 356 354 354 354 354 354 354 352 351 351 350 349 349 348 348 348 348 347 346 347 347 345 344 343
357 359 357 357 355 355 357 358 358 359 358 356 356 355 355 355 355 355 353 350 349 351 354 344 342 338 334 330 326 329 326 332 333 339 340 343 344 345 349 350 351 352 352 351 351 352 352 352 352 352 352 353 353 354 355 355 357 358 356 356 356 354 355 355 354 354 354 354 351 351 350 350 348 348 348 347 348 348 346 347 346 344 343 344 343
356 359 359 356 356 356 357 357 358 358 358 357 356 356 356 356 356 355 353 351 348 348 352 347 342 344 337 328 327 325 326 329 327 336 336 338 341 343 346 348 349 351 352 350 351 351 351 351 351 352 352 352 352 353 354 356 357 358 358 358 356 355 354 354 354 354 353 352 352 351 351 349 348 347 347 348 346 347 347 346 342 343 343 343 343
356 357 359 357 356 356 357 357 358 359 358 358 358 356 355 354 355 356 354 351 351 348 348 356 349 347 337 339 337 333 331 330 328 330 340 340 340 341 344 346 349 350 351 350 349 350 352 351 352 352 353 353 353 353 353 353 354 355 355 355 358 356 355 354 354 354 353 353 353 352 350 348 347 347 348 347 347 345 347 344 345 343 343 343 343
357 357 358 359 356 356 356 357 358 358 360 358 357 356 356 355 356 356 356 356 351 349 347 346 348 348 346 343 346 343 334 332 330 327 329 337 336 335 338 343 346 348 348 349 348 348 350 352 352 351 352 353 353 353 353 354 355 356 355 356 355 356 355 355 354 353 354 354 351 352 349 348 348 349 349 345 345 344 343 343 341 343 342 343 344
356 356 358 359 357 355 356 356 357 358 360 358 357 357 358 358 358 357 357 357 353 351 348 344 348 345 347 345 344 342 333 334 330 333 334 330 335 335 334 338 342 344 347 347 347 347 349 350 351 352 352 352 353 353 353 353 352 354 356 354 356 355 355 355 354 354 354 354 352 351 349 349 349 350 348 346 345 345 343 343 343 344 344 344 345
357 357 357 358 359 356 356 357 357 357 361 359 358 357 358 358 358 357 356 356 354 353 351 347 344 346 342 340 337 339 337 339 337 337 334 328 327 327 333 334 335 338 342 345 346 347 348 349 350 352 352 353 353 353 352 352 352 352 354 354 355 355 355 354 354 353 354 352 351 351 350 351 351 350 348 346 346 346 345 345 344 344 345 346 346
356 356 356 357 358 358 356 356 357 357 360 360 359 358 358 358 359 359 358 357 355 354 351 350 346 347 344 343 340 338 337 335 334 332 329 334 331 331 330 331 332 337 339 339 343 344 345 348 349 350 352 353 353 353 352 351 352 352 352 353 355 355 355 355 354 354 354 352 350 350 351 351 351 349 347 345 345 346 346 346 345 346 347 348 348
356 356 356 357 357 358 356 356 358 360 361 360 359 359 359 359 359 359 359 358 355 353 354 353 348 346 342 341 342 339 337 335 336 333 333 330 329 328 328 330 331 332 340 337 341 342 345 347 347 347 350 351 352 353 352 351 350 351 351 351 353 354 354 355 354 354 354 352 351 351 351 350 349 348 346 346 346 346 348 348 348 348 349 348 348
355 355 355 356 357 357 358 357 358 358 359 360 361 360 360 360 360 359 358 358 357 355 352 352 347 345 342 339 339 339 337 337 337 337 333 333 332 331 331 334 333 333 335 340 341 340 341 343 345 347 348 349 351 352 352 352 351 350 352 352 352 352 354 355 354 354 353 352 350 351 351 350 349 348 347 347 347 348 349 350 350 349 348 348 348
353 353 355 356 356 356 356 356 356 358 359 360 360 361 360 360 360 359 358 357 356 355 353 352 350 346 345 341 339 337 338 339 338 337 336 337 334 333 330 330 333 333 336 335 339 338 340 341 345 345 347 349 349 351 351 351 350 349 352 352 350 350 351 353 353 352 351 350 349 349 350 350 351 350 349 350 351 351 351 351 350 349 348 348 348
352 353 355 356 356 356 357 357 357 358 359 359 360 360 360 360 360 359 358 359 357 356 355 354 352 350 348 345 340 339 339 339 338 338 336 334 334 331 332 333 331 332 334 340 338 336 340 340 342 347 347 347 348 349 350 349 349 349 350 351 349 348 349 351 352 351 350 349 347 348 349 350 351 351 352 351 351 351 351 350 349 348 349 348 346
353 354 356 355 356 356 356 356 357 358 359 359 360 360 361 360 360 360 360 359 358 356 355 353 352 349 347 346 345 341 340 342 339 339 339 337 336 334 334 330 331 332 334 336 335 335 335 340 341 342 345 348 347 348 348 348 348 349 350 352 352 346 346 348 350 349 348 347 347 346 347 348 349 350 351 351 351 351 350 350 350 349 348 347 347
354 354 355 356 355 355 356 356 357 357 358 359 359 360 360 359 359 359 359 359 357 355 355 354 352 352 349 347 344 342 342 340 341 341 341 341 339 337 337 336 331 328 330 332 333 335 336 337 341 343 345 345 347 347 347 346 347 348 351 351 351 350 345 345 347 347 347 345 345 345 345 347 348 348 349 350 351 351 350 349 349 349 348 347 348
353 355 354 355 355 355 355 356 356 357 358 359 359 360 360 359 359 358 358 358 358 356 355 354 354 352 350 348 346 346 343 342 342 343 343 343 342 340 339 337 336 332 332 331 332 333 339 334 337 345 343 345 345 347 347 348 347 348 349 350 349 350 345 342 343 345 345 345 344 343 344 345 346 346 348 348 350 351 350 349 348 347 348 347 347
352 354 355 354 355 358 355 355 356 357 358 358 359 359 359 359 359 359 359 359 357 357 356 355 354 353 351 349 346 345 346 342 341 341 343 343 342 341 340 340 340 336 335 331 332 333 337 336 335 340 342 342 344 345 345 346 346 348 348 347 346 347 344 339 339 341 343 343 342 341 341 342 342 344 345 347 347 347 347 347 346 346 348 347 347
352 354 354 354 354 355 355 355 356 356 357 358 359 359 359 358 358 358 358 358 357 356 357 355 354 353 351 349 348 346 346 344 343 341 343 342 342 341 341 340 338 339 337 336 331 338 335 340 339 337 339 342 340 341 343 344 346 346 347 347 346 344 343 343 338 337 338 340 340 339 339 339 338 339 340 341 342 342 342 343 344 345 346 347 347
351 353 353 353 354 353 354 354 355 356 357 357 358 359 359 358 358 357 358 357 356 356 356 356 355 353 351 350 350 348 348 345 344 343 343 343 342 341 341 340 340 339 340 336 333 332 339 337 340 341 339 342 342 341 342 342 344 346 347 347 347 345 345 345 342 338 335 336 337 337 336 335 334 335 337 338 339 339 340 341 342 343 344 345 346
351 352 352 353 354 354 354 354 354 355 356 357 358 359 358 358 358 358 358 357 356 356 356 356 355 354 353 351 351 350 349 347 346 345 343 343 343 342 342 340 339 339 338 336 333 333 338 339 339 340 341 339 341 342 342 341 342 344 346 347 347 345 345 345 345 341 337 334 334 334 333 333 332 333 334 335 336 338 339 340 340 340 340 342 343
351 351 352 353 354 354 354 354 354 354 355 356 357 358 358 357 357 357 357 357 356 356 356 355 355 355 354 352 351 351 350 348 347 345 345 344 342 342 342 340 340 339 339 337 335 335 333 340 340 343 342 340 341 344 342 342 342 344 342 345 345 345 345 346 345 345 339 337 335 333 333 332 331 331 332 334 335 336 337 338 338 337 338 340 339
352 352 352 352 353 354 353 354 354 354 355 355 357 357 357 357 357 357 357 357 356 355 354 355 355 355 354 353 352 352 350 348 348 347 346 345 344 343 343 343 342 341 340 340 339 336 335 336 341 339 341 342 341 343 344 343 345 345 343 343 342 344 345 346 345 344 340 337 335 334 333 333 332 331 331 331 333 334 335 334 333 334 335 334 333
351 353 353 353 353 353 353 353 353 354 354 355 355 356 357 357 357 357 357 357 357 356 356 355 355 355 353 353 353 353 352 349 349 348 347 346 345 345 344 344 344 343 342 340 339 338 338 335 339 339 341 341 343 343 344 344 341 343 343 344 344 343 343 345 345 345 342 337 336 334 334 333 332 331 330 330 330 330 330 330 330 331 330 332 332
350 352 353 354 353 353 352 352 352 353 354 354 355 355 356 357 357 357 357 357 357 357 357 357 356 355 354 353 354 354 352 349 349 348 348 347 346 345 344 344 343 343 343 342 341 340 338 336 337 341 342 343 344 345 344 342 344 342 342 342 343 344 344 343 344 344 341 338 336 335 334 333 333 332 331 330 329 328 328 329 329 328 329 328 327
351 351 352 353 353 353 353 353 353 353 354 354 355 355 355 356 357 357 357 357 357 357 357 357 357 356 355 354 354 354 353 350 350 350 350 349 348 346 345 345 344 343 343 342 342 341 339 338 338 338 341 340 341 342 344 343 342 341 342 342 342 342 342 342 342 342 344 343 343 342 337 335 334 332 332 332 330 328 328 328 329 328 327 325 322
351 351 351 352 353 354 354 354 354 354 354 354 354 355 355 356 356 356 356 357 357 357 357 357 357 357 356 355 355 354 353 352 351 351 351 350 349 348 347 346 346 343 342 342 342 340 340 339 339 340 339 341 341 338 344 343 343 342 340 339 339 343 342 342 342 343 343 342 342 340 340 341 339 338 331 328 329 330 329 327 327 327 326 324 322
351 351 351 351 352 354 354 354 354 355 354 354 354 355 355 356 356 356 356 356 356 356 357 357 357 356 357 356 355 355 355 354 353 352 352 350 351 349 349 348 347 344 343 342 341 340 339 338 338 338 339 339 341 340 341 340 340 340 340 338 337 338 341 342 342 342 344 343 343 342 339 338 338 337 332 331 331 330 329 328 330 331 328 325 323
351 352 352 353 352 352 353 354 354 355 354 354 354 354 354 355 356 355 356 356 356 356 356 356 356 357 357 357 356 356 356 353 346 346 346 345 351 348 349 349 347 345 344 343 342 341 339 338 338 339 338 338 338 338 339 338 337 336 342 340 339 340 341 341 342 343 343 342 343 342 343 344 344 344 344 343 341 336 334 332 335 333 330 325 324
351 352 352 353 353 352 352 353 354 354 354 354 346 335 339 354 355 355 355 356 356 356 355 355 355 356 356 357 357 354 346 343 341 339 336 336 337 346 351 350 348 347 345 343 342 341 340 339 338 338 337 337 338 339 338 340 341 342 340 340 337 339 341 339 340 342 344 341 340 340 342 344 342 344 345 342 343 344 342 338 337 335 331 327 326
350 351 351 350 351 353 353 353 353 354 354 353 336 330 331 334 351 355 355 355 356 356 355 355 354 355 356 357 358 356 350 344 345 336 335 334 334 333 335 338 343 349 346 344 343 343 341 340 340 340 338 337 338 340 340 340 341 341 339 341 339 339 337 336 334 342 343 341 341 340 340 345 343 340 341 341 341 341 342 342 333 331 328 327 327
350 351 350 350 350 351 351 353 353 353 354 339 332 329 329 328 334 354 355 355 355 355 355 355 355 356 356 356 356 358 358 357 357 355 344 334 331 331 331 332 333 334 338 346 346 345 343 341 341 340 340 339 340 341 340 340 340 340 342 340 340 339 338 336 336 336 344 343 341 340 337 343 343 339 338 339 339 340 340 336 332 327 326 326 326
351 350 350 350 349 350 350 350 350 352 353 337 331 328 328 327 327 338 354 355 355 355 355 356 356 356 356 356 356 357 357 350 352 357 357 355 336 329 330 331 331 330 330 330 333 345 348 346 343 343 343 343 342 342 344 342 344 341 341 339 340 339 339 338 338 339 341 344 342 338 335 338 339 337 336 338 339 339 339 333 330 328 326 326 325
350 350 350 350 350 350 350 349 350 351 352 337 329 326 326 325 326 330 351 354 355 355 355 356 356 356 356 356 355 355 357 357 357 357 356 356 356 353 345 341 341 340 330 327 327 327 336 344 346 344 347 348 344 345 347 347 343 341 341 340 342 340 340 339 342 342 343 342 337 335 332 334 335 335 334 337 339 339 339 335 329 328 326 325 324
350 349 349 349 350 350 350 350 350 349 350 334 327 324 323 322 324 327 348 352 354 355 356 356 356 356 357 357 356 356 356 357 357 355 356 356 356 355 354 353 350 348 348 345 341 339 338 339 341 344 346 349 349 349 349 350 347 346 345 344 344 344 344 344 342 342 339 341 338 335 329 334 335 333 334 336 338 338 340 333 329 327 326 325 324
351 351 351 351 350 350 351 351 350 349 350 331 325 323 321 321 323 336 345 349 352 353 354 355 356 357 357 357 356 356 356 356 347 334 340 355 355 354 353 353 353 353 352 344 337 338 344 345 345 344 345 347 339 350 350 349 349 348 346 346 345 342 339 336 334 338 336 337 338 335 332 333 336 333 335 337 338 337 339 339 330 327 326 325 324
350 350 350 350 351 350 350 351 350 350 350 337 324 321 320 319 322 341 345 347 349 351 352 354 355 356 356 357 357 356 357 356 344 333 330 334 352 353 353 353 353 353 353 355 336 329 329 328 328 330 330 329 329 327 326 326 334 340 344 341 339 340 336 332 332 334 334 335 336 337 334 332 335 334 334 337 337 336 338 339 340 328 325 325 324
349 350 350 350 351 351 350 350 350 350 350 341 324 319 318 317 325 343 346 347 348 349 351 353 354 355 356 349 355 357 356 356 338 330 329 334 347 351 352 351 351 351 353 355 354 347 327 324 325 325 326 326 326 326 325 325 325 327 336 334 339 341 335 332 331 333 335 334 336 338 333 332 336 336 334 336 335 335 336 339 339 336 327 324 321
351 352 351 350 350 351 351 351 342 347 351 343 324 319 317 315 326 345 347 347 348 349 350 351 353 354 355 352 346 345 350 348 333 329 327 333 349 351 352 351 350 351 353 356 355 354 355 351 347 341 339 334 336 337 338 329 327 337 337 337 339 340 336 333 333 333 331 333 337 339 333 334 334 336 334 331 329 334 336 337 337 337 336 333 330
Wind_Speed
3 2 2 2 2 2 1 1 0 0 0 1 0 1 1 1 1 1 1 1 1 1 1 2 2 2 2 2 2 3 3 3 3 3 4 2 2 4 7 7 6 6 6 7 6 7 6 6 6 5 5 5 6 5 5 5 5 5 4 4 4 4 3 3 2 2 1 1 2 2 3 3 4 4 5 5 6 6 8 9 7 7 7 8 8
3 2 2 3 2 2 1 2 2 1 1 2 1 0 1 1 1 0 1 2 1 1 1 1 1 2 2 3 3 3 3 4 4 3 3 3 2 3 6 7 7 6 5 5 6 6 7 6 6 5 5 5 5 5 5 4 4 4 4 3 3 3 2 2 1 1 1 1 2 3 4 4 4 5 5 5 7 8 8 7 9 8 7 8 7
3 3 2 2 2 2 2 1 2 2 2 2 1 1 0 1 1 1 1 2 2 1 1 1 2 1 2 3 3 3 3 3 3 3 4 4 2 2 3 7 7 6 7 8 7 6 6 6 6 4 5 5 5 5 5 4 4 4 4 3 3 2 2 1 1 1 1 2 2 3 3 3 4 6 7 7 7 6 6 5 5 7 7 8 8
4 3 4 3 3 3 2 2 3 1 2 2 2 1 1 1 1 1 2 2 1 0 0 1 1 0 1 3 3 3 3 3 4 4 3 4 3 2 2 3 6 6 7 7 6 6 5 6 5 6 5 5 5 5 5 5 4 4 3 3 3 2 2 2 2 3 3 3 3 4 5 6 6 6 6 6 6 5 6 6 6 7 7 8 9
4 4 4 4 3 3 2 3 2 2 2 2 2 1 2 1 2 2 2 2 2 2 1 0 2 3 1 2 3 3 3 3 3 4 4 4 4 2 2 2 2 5 6 6 5 6 6 5 6 5 5 5 5 6 6 6 5 2 4 4 3 4 4 4 4 4 4 4 4 4 3 5 4 5 5 6 6 6 5 5 6 7 8 8 9
4 4 4 3 3 3 3 3 2 2 1 2 2 1 1 1 1 2 2 2 2 2 2 3 2 2 2 1 2 3 3 3 3 3 3 3 4 3 1 1 1 0 3 6 5 7 6 6 5 5 6 6 7 6 3 5 4 3 5 7 6 5 6 5 6 4 4 5 5 4 3 4 4 4 5 5 5 5 6 6 7 8 8 8 8
5 5 4 4 3 3 3 4 2 2 2 2 2 1 0 2 1 2 2 2 2 2 1 1 2 3 2 1 2 2 3 3 3 3 3 2 4 4 2 2 1 1 1 1 3 7 6 6 3 6 7 7 4 5 3 5 4 4 6 7 7 5 6 6 4 6 5 5 6 7 4 4 4 5 4 5 5 5 6 7 8 8 8 9 9
5 5 4 4 4 4 4 3 3 2 2 1 1 2 1 1 1 0 3 3 2 2 2 2 2 2 1 2 2 3 3 2 3 3 3 3 3 4 3 2 1 1 3 1 1 2 5 6 7 7 7 7 3 3 1 3 4 4 6 5 6 6 5 5 4 4 4 5 5 5 5 5 4 4 5 5 4 5 6 8 7 8 9 10 10
5 5 5 5 4 4 4 3 3 3 2 2 2 1 1 1 1 1 1 2 2 1 2 2 3 2 2 2 2 3 3 2 2 2 3 3 3 3 3 4 3 4 3 2 1 2 3 6 7 7 8 6 4 5 6 6 6 6 6 6 6 6 6 4 4 3 4 5 5 6 6 5 5 4 4 4 5 6 7 7 7 8 8 8 8
5 5 5 5 5 5 4 3 3 3 3 2 2 0 1 1 3 1 0 1 0 2 2 1 2 3 2 1 1 0 2 2 2 2 2 2 2 3 3 3 4 3 3 1 2 1 2 4 6 7 7 6 5 5 6 5 5 6 5 7 7 6 6 4 5 4 4 4 5 4 4 4 4 5 5 6 6 6 6 7 7 8 7 7 8
5 5 5 5 4 4 4 4 3 3 3 2 2 2 1 1 2 2 0 1 1 1 1 0 3 3 3 3 3 3 2 2 1 2 1 1 2 2 2 3 3 3 3 3 2 2 3 3 2 2 2 5 6 5 5 5 5 5 6 7 6 6 5 5 5 5 5 5 5 5 5 5 5 5 5 6 6 6 6 6 6 6 6 7 9
5 5 5 5 5 4 4 3 3 3 4 3 4 3 4 3 3 2 2 1 1 1 1 3 4 5 3 4 4 3 3 2 2 1 1 1 1 1 2 2 3 3 4 4 4 5 5 4 3 3 2 2 5 6 6 5 5 5 5 5 5 5 5 5 5 5 5 6 6 5 5 5 4 4 5 4 5 6 6 6 6 6 6 9 8
5 6 6 4 4 4 4 3 3 4 4 5 5 4 3 2 0 1 2 0 1 1 1 2 4 3 3 4 4 3 2 2 2 1 1 1 1 1 1 1 1 3 4 4 5 4 4 4 4 3 2 1 3 4 5 5 5 5 5 5 5 4 4 4 4 4 4 5 5 4 4 3 4 3 4 4 5 5 6 5 5 6 7 7 6
5 6 5 5 5 4 4 4 4 4 4 3 3 2 2 2 1 1 1 2 1 1 2 2 2 1 1 2 4 3 2 2 1 1 2 2 2 2 1 2 2 2 2 3 4 4 5 4 4 4 3 3 2 1 2 2 2 2 4 4 4 4 3 3 4 4 4 4 4 4 3 1 2 3 3 4 4 4 4 4 5 5 5 5 5
6 6 5 5 5 5 5 4 4 4 3 3 3 4 3 4 3 3 1 1 1 1 2 1 2 1 1 3 2 3 2 2 1 2 2 2 2 3 2 3 3 2 2 2 4 4 4 4 4 4 4 4 3 3 3 4 4 5 4 2 2 4 4 4 3 4 3 3 2 2 4 1 2 2 2 1 2 2 2 2 2 3 3 3 3
6 6 5 5 6 6 4 4 4 4 5 5 4 4 3 3 3 3 2 1 0 1 1 2 3 4 1 2 0 1 3 3 3 4 1 3 3 4 3 3 3 2 1 3 3 3 3 3 4 5 5 5 4 3 3 3 5 7 7 5 3 1 2 4 4 4 3 3 2 1 0 1 0 1 1 1 1 1 2 1 1 1 2 2 2
6 6 6 6 5 5 5 5 4 4 4 4 5 5 5 4 4 4 4 4 2 2 1 1 2 0 6 3 2 1 3 3 1 4 1 2 3 4 3 4 4 3 3 3 2 3 3 3 4 4 4 4 4 4 4 4 4 4 4 5 3 4 4 4 5 4 4 3 2 1 2 1 2 3 2 2 1 1 1 1 1 1 1 2 2
5 5 5 5 6 5 5 5 5 4 5 5 4 3 4 4 5 5 4 3 2 2 2 1 2 2 3 1 3 2 2 1 1 3 2 2 2 2 4 5 3 3 3 3 4 3 3 3 3 3 3 4 4 4 4 4 4 3 3 3 5 5 4 5 5 5 4 4 3 3 3 3 4 3 2 1 1 1 1 0 0 1 1 2 3
5 5 5 5 5 5 6 5 5 5 4 4 4 5 4 5 3 4 5 3 3 3 4 3 1 1 2 2 1 1 3 4 3 2 3 2 1 2 3 4 4 4 5 5 4 4 3 3 3 3 3 2 3 4 4 4 5 5 7 6 6 5 5 5 6 6 6 5 4 4 4 5 4 4 3 3 2 2 1 1 1 1 2 3 3
6 6 6 6 6 6 6 5 5 5 5 5 6 4 3 2 4 4 2 3 4 4 3 3 4 2 2 3 0 2 1 2 3 4 3 1 3 1 2 3 4 5 5 5 5 5 4 3 3 3 2 3 3 3 4 5 4 4 4 5 7 7 6 5 6 7 7 6 6 6 6 5 5 5 4 5 4 3 3 3 3 2 3 3 4
6 6 6 7 6 7 6 6 6 6 5 4 4 4 5 4 4 4 4 4 4 4 3 3 3 4 3 1 2 2 1 0 2 2 3 3 4 2 4 2 2 4 5 5 4 4 4 4 3 4 3 3 3 3 3 3 3 4 4 6 8 8 7 6 6 8 8 7 7 7 6 6 6 6 6 6 5 5 4 4 4 4 4 4 5
6 7 7 7 6 6 6 7 7 6 4 5 4 4 5 5 5 5 5 5 4 4 5 4 4 3 4 3 3 2 1 1 1 2 1 1 4 3 3 4 5 4 2 5 5 5 4 4 4 4 4 3 3 3 3 3 3 3 4 7 9 8 7 7 7 9 9 8 8 7 7 7 7 7 7 6 6 6 6 6 6 6 6 6 7
6 6 7 7 7 6 6 7 5 5 5 5 5 5 5 5 4 4 5 5 4 5 4 4 3 3 4 4 5 5 5 4 4 3 3 3 1 4 3 4 4 6 3 2 4 4 4 4 5 4 4 4 3 3 3 4 4 5 7 8 8 8 7 8 8 10 10 8 9 8 8 8 8 8 8 8 8 8 8 7 8 8 8 8 8
6 6 6 6 6 6 6 6 5 5 6 5 4 5 4 4 4 4 4 5 4 4 4 4 4 3 4 3 5 4 3 4 3 4 5 5 4 5 4 1 3 5 4 3 2 4 5 5 5 5 5 4 4 4 4 4 5 8 8 8 9 9 9 10 10 10 10 9 9 9 10 10 10 9 9 9 9 9 9 9 9 9 9 9 8
6 6 6 8 7 7 6 6 5 5 6 6 5 5 5 4 5 5 4 5 5 5 5 6 5 5 5 4 3 3 5 4 2 3 2 2 4 4 2 1 3 3 2 1 3 1 5 6 5 5 5 5 4 4 4 5 5 7 10 7 10 10 11 11 10 10 10 11 10 10 10 9 9 9 8 8 9 9 10 11 10 10 10 9 9
8 9 7 7 7 7 7 7 7 7 6 7 6 6 6 5 5 5 5 5 4 6 6 5 5 6 3 4 4 5 5 3 4 3 3 3 2 4 3 1 1 3 2 1 1 2 2 3 5 5 5 6 5 5 5 5 5 9 11 8 8 11 12 12 12 12 12 12 13 12 12 12 11 11 10 10 10 10 10 10 11 11 11 11 10
9 8 7 8 7 7 7 6 7 7 6 6 5 6 5 5 4 5 4 4 5 5 5 5 5 6 5 6 5 4 5 4 4 5 4 5 5 4 4 4 3 1 3 1 2 5 7 3 4 6 7 6 6 6 6 6 7 8 10 8 6 10 12 13 13 13 13 13 14 14 14 14 13 13 12 12 11 11 11 10 10 11 11 10 9
6 6 7 8 8 8 7 7 7 6 6 7 7 6 6 6 5 4 5 3 5 6 5 5 6 6 7 5 4 5 5 4 4 5 5 5 5 3 4 4 4 6 2 4 3 5 4 5 2 6 7 7 7 6 6 7 6 10 11 7 6 7 12 14 14 14 15 14 15 15 15 15 15 15 14 14 14 13 12 12 11 11 11 10 9
6 6 7 8 8 8 7 7 7 7 7 7 6 6 6 5 5 5 6 4 5 6 4 5 6 5 5 6 6 5 5 4 4 4 4 3 4 4 5 6 5 4 4 4 4 4 3 5 3 3 6 6 6 5 5 7 8 8 7 7 7 7 10 14 15 15 15 15 15 15 15 15 15 15 15 15 14 14 14 13 12 11 11 10 10
7 6 7 7 8 8 8 8 7 7 7 6 7 6 6 5 6 6 5 5 5 4 5 5 5 4 4 4 4 5 5 4 5 4 4 5 4 4 5 4 5 6 5 5 7 4 4 3 5 4 2 5 4 4 5 7 7 9 7 7 7 8 13 14 15 15 16 16 16 16 16 16 16 15 15 15 15 15 15 14 13 13 10 11 11
7 7 8 7 8 8 9 8 7 8 7 7 6 6 6 5 5 5 5 5 5 5 5 5 4 4 5 6 5 6 4 5 4 4 4 4 5 4 4 4 4 5 5 4 6 4 3 3 4 5 4 4 4 5 5 6 7 9 7 7 8 12 13 11 15 15 16 16 16 16 16 16 16 16 16 15 15 15 15 14 14 13 12 12 11
8 9 8 8 8 8 7 7 7 7 7 6 6 6 5 6 5 5 5 6 6 6 5 5 4 5 5 6 6 6 5 4 5 5 5 4 4 4 4 4 4 5 5 5 6 12 3 4 4 3 4 4 3 5 6 5 5 10 7 7 8 10 8 8 13 16 16 16 17 17 17 17 17 16 16 16 16 15 15 15 14 14 13 13 12
8 9 9 9 10 10 9 9 9 9 8 8 6 6 6 6 6 6 5 6 7 5 5 5 5 5 6 7 7 7 5 5 5 4 4 4 4 4 4 4 4 4 5 6 7 11 7 3 4 3 1 1 3 5 6 6 5 6 7 8 7 7 7 7 8 13 16 17 17 17 17 17 17 17 17 17 16 16 16 15 15 14 14 13 13
9 9 10 9 9 10 8 9 9 9 9 9 7 6 7 7 7 5 5 6 6 6 5 6 6 5 6 7 8 7 5 6 5 5 5 4 4 4 4 5 5 5 5 6 7 6 13 3 4 2 3 3 5 3 7 7 8 5 6 6 6 7 7 7 7 8 15 16 17 18 18 18 17 17 17 17 17 16 16 16 15 15 14 14 13
9 10 10 10 10 10 9 9 9 9 9 8 7 7 8 8 8 7 6 7 7 7 7 7 7 5 6 7 8 6 4 6 6 6 4 5 5 5 6 5 6 5 5 6 5 7 9 11 4 5 4 4 7 7 6 6 6 4 5 7 7 6 6 8 8 7 12 15 17 17 18 18 17 17 17 17 17 17 17 16 16 15 15 14 14
9 9 10 10 10 10 10 10 9 9 10 8 8 8 9 9 8 8 7 7 7 7 8 7 6 6 8 7 8 6 5 6 6 5 5 5 6 6 6 5 6 6 6 6 8 8 6 10 7 6 4 5 6 6 5 4 5 5 6 6 5 7 7 7 8 8 10 14 15 16 17 17 17 17 17 17 17 17 17 17 16 16 15 15 14
11 9 9 9 10 10 10 11 10 10 10 10 9 8 8 8 8 7 7 7 7 8 8 8 7 7 7 8 9 6 5 6 6 6 6 7 6 6 6 5 6 5 5 6 7 6 7 10 11 5 4 5 5 4 4 5 6 6 5 7 7 7 6 7 6 8 11 13 13 15 15 16 17 17 17 17 17 17 17 16 16 16 16 15 15
11 9 11 9 10 11 11 11 10 10 10 10 10 10 8 8 8 8 8 7 8 8 7 7 7 7 8 8 8 7 6 7 7 7 6 8 6 6 7 6 5 4 6 6 5 6 7 10 9 10 4 6 6 6 4 4 6 7 7 6 6 6 6 6 7 6 5 6 6 8 12 14 17 19 18 18 17 17 16 16 16 16 16 15 15
10 9 9 10 10 11 11 11 11 10 10 10 9 10 9 9 9 9 8 8 8 7 7 8 8 8 8 8 8 7 8 8 8 8 7 6 6 7 7 6 5 6 6 6 6 6 6 7 7 7 8 5 5 10 4 4 6 6 8 8 8 5 5 7 7 5 6 7 11 14 12 11 14 13 16 18 17 18 17 17 16 16 15 15 15
10 11 10 11 10 9 10 11 11 9 10 9 10 10 10 10 9 9 9 8 8 8 8 8 8 9 9 9 9 8 8 8 9 8 7 8 6 7 8 5 5 6 6 5 5 6 6 7 7 9 8 8 4 5 2 2 5 6 7 6 9 10 7 5 7 7 5 6 7 8 10 11 12 14 14 14 17 18 18 16 16 15 17 16 15
9 10 10 10 11 11 11 11 10 9 10 10 9 10 10 11 9 9 9 8 8 8 8 8 8 8 8 8 8 9 10 12 13 12 10 10 7 8 10 6 5 6 6 6 6 5 6 6 7 7 8 7 8 8 6 6 8 12 6 6 8 8 8 5 5 6 7 7 7 7 6 7 7 7 6 7 9 15 15 17 13 17 17 16 16
11 11 11 11 10 11 11 11 11 9 10 9 12 16 14 11 10 8 9 9 10 9 9 8 8 9 9 9 9 13 14 14 15 15 15 14 15 12 11 8 7 6 7 7 6 6 6 7 8 7 8 9 7 8 9 9 9 7 6 5 7 7 5 6 6 4 5 7 8 7 7 5 7 7 6 9 7 9 7 8 9 12 15 18 17
12 11 11 11 11 11 12 10 11 10 10 10 16 15 17 17 12 10 10 9 9 9 8 9 10 9 8 8 8 11 12 12 14 16 15 16 16 17 18 17 12 10 7 7 8 7 7 8 9 7 8 11 11 8 9 10 7 8 8 5 7 5 6 6 10 1 5 8 6 6 8 5 5 8 9 9 8 8 8 9 16 18 18 18 19
12 11 12 13 13 12 11 10 11 11 11 14 15 16 17 17 15 12 9 8 8 8 8 8 9 8 9 8 8 7 8 10 9 10 12 15 17 17 18 18 18 17 16 13 11 9 8 9 8 10 8 11 13 8 8 9 11 9 6 7 7 7 7 7 6 7 3 6 5 5 9 6 6 8 10 11 9 10 11 14 17 19 19 19 19
12 12 13 13 13 12 12 12 13 12 10 14 16 17 17 17 18 15 10 10 9 9 9 9 10 10 10 8 8 8 8 13 11 9 9 10 13 18 19 19 18 18 18 19 18 15 11 12 13 14 10 12 12 11 11 13 10 11 9 7 6 7 7 7 7 7 2 4 4 6 10 7 6 9 11 12 9 9 11 14 18 19 20 21 21
12 12 13 14 13 13 13 13 12 11 12 14 16 18 17 18 18 15 10 11 10 10 11 10 9 10 11 11 10 10 8 9 9 9 9 10 9 8 9 9 10 15 16 18 19 20 17 14 14 15 14 11 14 14 14 11 11 12 11 11 9 8 8 9 7 5 2 6 7 6 10 8 9 9 12 12 10 11 12 16 21 22 22 23 23
13 14 14 14 13 13 13 13 12 12 11 16 16 18 18 19 18 15 8 9 10 11 11 11 12 12 11 10 11 11 11 10 10 11 10 9 9 8 9 9 10 9 9 10 11 11 10 10 13 14 16 15 16 16 15 12 14 13 12 13 13 11 9 2 1 4 2 2 7 7 12 14 8 11 14 12 10 12 12 15 20 21 23 23 23
12 12 11 11 13 13 13 13 12 13 12 17 17 18 18 18 17 10 8 9 10 11 11 12 12 11 11 11 11 12 12 11 13 15 14 11 9 9 10 10 10 9 9 10 14 15 13 12 13 14 14 15 17 16 16 15 14 12 12 12 10 9 6 5 7 3 4 9 12 12 12 14 9 8 13 9 7 9 10 9 12 18 20 21 22
12 13 13 13 12 12 13 12 14 14 13 16 17 18 17 17 12 8 8 7 9 11 13 12 12 12 11 11 11 11 12 12 14 15 15 14 10 10 10 11 9 9 8 7 14 20 20 22 22 21 20 20 21 22 23 25 19 15 11 10 13 7 3 4 10 6 7 10 10 13 12 14 10 8 12 9 7 10 9 7 7 16 23 23 21
13 13 12 12 11 11 13 14 13 12 12 14 16 17 17 17 15 10 8 8 9 11 12 12 11 11 12 16 14 12 13 13 15 15 16 12 10 11 10 12 11 10 8 7 8 9 17 20 20 21 21 20 22 24 25 25 26 19 10 15 18 6 7 10 13 6 7 10 14 11 7 15 11 7 10 6 2 5 8 8 12 13 17 17 22
13 11 11 11 11 11 11 13 15 14 12 13 16 16 17 17 15 10 10 9 9 10 10 11 11 10 11 12 16 15 14 15 17 16 16 13 10 10 10 10 11 11 9 9 9 10 9 7 9 9 10 14 15 15 18 26 25 18 12 14 13 6 7 9 9 7 9 13 16 9 7 14 12 9 6 7 10 6 7 10 12 10 9 10 10
Wind_Direction
195 197 171 212 256 242 223 251 193 291 44 29 61 351 37 77 84 97 111 102 16 8 223 241 219 213 208 193 176 157 147 146 150 154 169 184 208 244 211 216 202 199 170 199 188 175 178 174 169 166 162 158 156 153 147 144 151 148 142 143 139 144 134 139 130 122 117 70 27 360 14 2 1 356 349 349 340 340 342 7 358 352 345 355 348
193 178 176 224 226 235 250 263 249 262 175 229 184 117 274 12 6 61 114 83 46 334 360 327 230 208 209 206 195 175 161 160 158 160 168 175 205 255 228 208 215 185 213 219 196 194 189 184 181 177 178 174 169 167 165 165 158 158 154 155 159 156 156 129 151 100 349 354 358 349 344 353 345 335 340 330 330 348 359 353 345 337 350 348 353
183 184 194 205 219 227 244 244 258 236 201 223 196 203 167 258 284 328 114 109 95 260 227 284 299 288 229 210 201 170 165 165 156 150 167 183 190 229 271 229 210 199 210 212 208 204 206 190 194 205 197 190 187 187 184 181 179 180 184 181 184 191 185 185 250 288 312 326 342 337 328 328 334 334 339 353 340 341 343 342 331 334 341 344 345
183 185 189 189 212 223 248 243 257 260 224 243 263 294 325 345 45 65 66 81 92 221 299 222 211 172 195 196 186 170 168 170 164 156 161 181 187 212 259 255 230 220 214 215 215 215 211 210 203 196 217 217 208 204 208 206 202 208 213 222 220 227 229 248 259 278 302 311 299 321 339 355 346 349 352 339 342 343 336 341 344 340 341 344 346
193 187 194 188 189 200 221 235 242 233 249 255 285 358 17 12 32 63 51 40 32 7 357 262 27 7 57 155 162 166 168 173 158 155 163 176 189 192 242 262 245 243 240 224 225 240 213 221 214 208 218 236 237 230 225 223 227 256 291 256 259 267 261 251 259 285 311 311 322 353 350 337 343 339 334 333 335 333 341 341 339 339 341 347 348
183 194 191 187 192 195 208 233 218 198 230 259 272 34 345 347 351 43 43 49 29 354 7 355 352 39 51 120 151 164 168 181 164 156 152 166 185 192 233 272 319 350 249 243 244 235 241 221 229 227 225 228 235 248 267 344 330 314 287 289 277 280 292 312 306 336 337 329 329 334 341 316 326 327 326 328 328 330 333 333 337 337 341 348 353
192 189 196 188 194 207 214 222 179 166 180 225 235 359 37 306 6 6 357 61 71 27 33 8 333 34 9 141 168 159 184 185 142 131 142 155 179 194 203 246 258 287 292 283 234 262 265 264 232 269 238 239 242 253 229 183 277 250 259 274 286 289 285 295 321 307 303 316 320 310 317 300 296 297 307 311 315 322 328 334 342 346 349 348 351
196 188 194 194 195 204 223 187 172 157 163 187 167 239 289 339 1 90 335 333 17 28 7 344 337 41 51 183 159 181 197 170 125 128 140 151 187 198 207 225 256 280 260 262 315 303 287 268 242 242 252 250 238 242 317 252 237 259 258 263 269 286 292 303 293 301 308 295 297 302 287 293 295 292 291 308 314 323 336 345 349 352 353 351 352
194 191 193 192 195 209 214 189 163 164 159 168 220 205 216 267 304 226 142 293 12 6 5 342 339 12 24 136 195 188 203 97 112 128 136 161 181 196 212 224 238 250 274 285 332 298 323 293 263 249 255 264 229 241 234 232 235 249 264 264 267 284 301 289 273 250 269 286 287 282 288 298 305 301 295 297 315 337 341 347 347 352 350 357 2
191 188 194 193 191 201 197 178 162 160 161 172 228 220 168 189 264 264 168 181 222 2 326 325 339 16 27 47 200 262 35 66 121 144 142 166 172 197 214 223 232 244 261 281 267 277 282 298 288 276 267 261 250 231 239 245 254 254 254 263 263 258 253 276 275 258 266 272 277 284 287 289 304 313 313 316 324 336 1 359 359 357 4 15 25
187 183 187 192 186 191 192 177 155 163 158 182 232 245 220 155 228 286 176 217 139 262 211 295 42 34 32 37 49 41 55 77 73 89 139 144 172 204 204 220 230 236 245 254 251 257 265 265 283 292 274 280 266 254 249 250 248 251 250 251 256 261 269 258 256 250 256 265 276 282 284 292 303 313 318 329 355 20 20 19 20 20 24 40 45
183 180 184 182 181 188 185 156 162 156 165 185 227 236 240 228 243 236 290 347 85 193 173 115 65 43 39 43 56 69 73 73 77 79 114 151 179 175 197 191 220 234 240 241 246 250 250 252 260 265 282 296 286 268 258 256 254 258 259 258 252 255 256 255 258 260 257 263 273 280 284 298 310 335 359 24 36 28 32 37 27 33 46 58 42
178 172 183 184 184 176 167 165 165 173 175 205 206 217 225 191 110 160 197 193 350 100 266 98 101 61 33 45 37 43 85 102 103 121 158 172 184 201 171 206 196 228 235 235 237 237 239 246 250 254 264 267 287 293 287 274 265 263 265 266 265 258 250 257 262 259 259 271 277 278 284 292 320 336 348 24 29 35 47 39 35 52 57 51 49
178 176 177 179 173 175 176 179 172 184 198 192 191 208 209 178 145 37 95 164 241 221 206 111 24 165 110 339 19 0 57 107 137 190 186 191 201 209 216 248 250 221 204 230 233 231 234 237 241 243 246 254 260 263 275 295 318 324 269 270 274 267 255 254 245 251 255 264 287 294 311 293 327 355 27 32 36 56 48 41 49 53 53 57 57
186 175 171 176 179 175 184 173 178 179 174 183 187 211 198 197 185 204 212 95 215 214 187 166 145 12 115 81 13 13 329 3 300 216 207 201 206 223 220 238 257 231 215 222 238 233 227 225 231 233 238 241 245 247 250 257 263 263 254 261 304 303 280 252 242 244 248 259 269 331 59 29 314 4 25 35 70 66 60 49 57 58 56 69 63
187 178 174 175 173 183 170 175 179 181 186 183 188 203 194 191 184 197 155 183 17 230 198 164 134 143 68 23 319 79 360 307 303 296 248 209 209 227 224 233 236 234 199 238 236 233 230 222 228 229 232 237 240 241 243 240 247 257 262 240 205 223 277 269 245 241 242 254 265 183 226 315 255 265 247 183 181 108 116 105 75 52 62 56 49
186 183 180 182 176 172 174 176 174 180 176 194 195 202 196 200 186 184 185 194 191 217 277 160 166 168 135 97 42 10 223 250 9 285 350 257 235 225 225 233 234 227 233 243 241 238 233 227 232 233 231 235 237 238 240 243 244 248 267 289 244 183 237 258 249 244 243 251 241 188 202 179 183 190 212 211 187 165 136 119 49 26 13 16 15
188 187 187 174 179 178 175 172 178 178 188 200 194 170 196 198 199 188 198 191 175 149 238 196 190 157 137 144 164 171 201 247 122 270 317 229 288 251 228 229 224 228 231 242 240 238 228 237 213 227 228 237 242 240 242 240 239 241 244 259 286 209 224 233 246 240 234 228 219 210 200 187 177 188 213 217 209 223 225 153 290 303 316 333 355
191 187 186 182 177 178 179 185 184 183 189 186 197 202 200 204 184 188 205 171 147 192 200 212 49 153 170 136 136 150 148 132 228 51 324 314 280 245 235 222 220 221 232 240 242 242 237 238 238 234 238 231 240 250 249 251 250 248 234 232 238 235 224 229 232 242 235 221 217 207 200 192 193 218 205 216 227 219 229 240 241 292 327 328 338
196 192 188 182 179 184 182 182 189 191 186 198 206 206 191 199 195 205 180 185 182 206 215 177 182 235 179 193 161 66 124 68 148 182 184 225 296 303 243 240 221 227 227 235 234 237 244 240 246 244 243 236 231 240 251 254 250 252 259 247 245 244 234 226 228 234 235 229 216 206 204 205 212 225 229 225 230 226 223 243 263 276 292 310 315
196 194 194 192 187 188 183 187 192 195 197 200 207 195 197 190 187 190 200 197 184 197 190 200 186 202 127 323 99 102 114 38 142 127 158 196 269 261 281 335 255 250 235 231 232 225 229 233 240 247 238 244 230 232 236 241 239 248 251 249 254 250 242 230 226 227 232 235 227 209 213 218 225 230 233 236 234 237 239 241 252 262 271 284 297
196 200 201 198 196 185 186 193 198 195 197 203 196 197 197 200 198 200 199 200 190 190 201 203 193 204 203 168 171 97 79 54 105 122 69 179 243 250 233 248 267 269 224 230 226 223 222 225 234 241 241 244 238 232 227 234 234 240 248 251 252 251 250 240 226 232 234 235 233 224 216 225 230 233 236 243 243 244 247 254 256 262 269 276 282
190 202 201 198 198 191 190 198 197 195 201 195 202 202 203 202 203 195 197 199 194 193 214 205 184 193 199 192 199 190 195 203 210 206 211 204 265 275 254 218 240 286 273 249 232 229 220 219 232 237 237 241 233 230 227 226 232 230 235 242 243 242 241 245 237 238 241 237 237 232 229 227 231 233 236 240 245 246 249 254 259 263 269 275 280
191 197 202 197 199 201 198 191 196 197 209 206 203 203 201 201 197 195 204 208 195 185 200 209 204 204 213 200 213 202 183 199 214 182 184 224 202 249 259 321 288 235 275 314 220 222 217 220 225 230 227 231 226 219 220 224 227 230 233 227 229 233 233 238 242 238 238 240 236 239 235 233 233 235 237 240 244 247 251 255 260 265 269 275 283
193 198 204 195 195 198 194 193 199 204 206 203 212 198 197 198 203 201 202 200 199 193 193 208 192 197 212 198 202 200 220 223 171 194 233 177 197 249 256 174 246 298 309 301 277 265 219 226 217 220 220 220 222 211 215 220 224 224 228 226 223 228 228 229 233 234 235 237 239 236 241 239 237 237 237 238 241 248 255 259 263 266 269 274 278
189 202 196 190 198 203 198 200 202 201 201 206 207 204 196 200 203 207 207 209 196 198 210 211 198 212 190 189 203 208 230 206 202 172 186 158 169 216 233 237 201 280 296 302 322 310 277 232 226 218 217 221 220 211 213 219 225 224 225 229 224 226 228 227 228 230 231 233 236 237 236 237 237 236 239 239 239 241 245 250 257 264 268 271 276
197 198 180 190 198 198 201 200 199 200 201 206 208 207 206 202 207 214 216 198 204 202 214 206 207 202 196 202 203 208 225 207 191 213 177 205 196 187 169 254 299 256 279 299 300 219 246 296 209 214 217 219 216 214 213 215 226 219 222 228 229 224 227 228 228 228 230 231 233 235 236 237 238 240 242 245 243 243 245 247 248 253 260 264 268
198 181 188 187 193 197 200 206 201 200 201 205 205 204 204 204 211 210 220 187 203 204 216 208 221 212 207 197 193 227 204 208 204 208 203 203 202 165 167 175 233 289 334 286 275 267 200 228 274 217 210 215 218 214 212 218 222 219 220 224 224 228 225 226 228 228 229 230 232 235 236 236 237 240 243 245 247 247 247 247 248 248 250 255 256
191 186 183 192 194 196 201 204 203 203 204 206 205 206 201 206 211 212 220 199 200 212 206 211 222 215 210 200 210 222 216 192 204 209 206 195 196 192 185 189 175 224 286 295 267 247 269 197 224 269 205 215 222 210 206 218 221 210 210 217 221 226 227 225 226 228 230 231 232 233 236 237 238 240 242 244 246 246 247 248 248 247 245 247 252
190 188 188 190 197 199 204 208 206 202 207 205 205 204 198 209 212 218 217 192 205 208 211 213 221 206 216 216 208 229 212 188 202 202 195 203 190 189 197 198 171 203 206 263 283 205 250 236 212 250 203 229 225 225 216 227 222 214 212 216 222 226 228 225 226 227 229 231 232 233 234 236 238 240 241 243 245 246 247 249 249 249 237 240 246
187 187 188 191 195 201 204 208 206 209 208 209 206 205 199 211 210 218 206 195 204 212 212 206 217 196 209 220 209 227 210 212 201 198 202 191 203 185 194 167 186 197 198 199 282 280 174 256 241 239 242 227 219 229 228 232 225 217 220 220 223 231 230 230 229 229 229 229 231 232 233 234 236 238 240 241 243 245 247 247 248 247 243 241 240
192 190 192 195 197 199 202 206 206 208 207 210 204 206 200 212 214 215 206 191 207 217 217 205 210 203 212 223 221 223 210 203 214 200 199 201 189 196 188 184 196 193 181 196 228 266 203 242 273 253 239 247 214 224 237 241 227 223 229 229 231 232 234 237 232 230 229 230 230 231 232 232 233 234 236 239 241 242 244 245 245 245 243 239 237
187 191 197 200 201 203 204 206 207 209 213 212 205 205 205 216 216 219 209 198 211 221 211 214 209 208 215 226 231 227 192 214 216 209 205 197 189 197 181 178 200 185 182 197 234 266 276 198 264 282 331 240 256 210 239 242 238 227 228 234 231 229 230 233 236 232 229 229 229 230 231 231 231 232 233 235 238 241 243 244 244 242 240 238 234
188 195 200 202 203 205 204 208 208 210 212 214 204 197 208 214 220 208 213 206 216 224 205 223 213 212 215 227 240 233 196 222 224 221 212 203 203 200 196 185 195 200 196 195 228 244 276 248 273 218 251 178 255 189 216 236 245 214 227 233 233 228 230 232 233 235 229 229 229 231 232 231 232 232 232 233 236 238 241 242 243 240 237 235 232
194 200 203 205 205 204 207 208 207 209 211 211 205 201 210 213 216 215 209 209 214 219 217 223 220 209 222 229 241 229 196 221 227 231 213 218 206 215 217 188 202 201 193 207 208 242 261 278 213 255 230 215 216 242 221 236 250 230 236 237 232 228 228 232 235 241 234 228 230 231 233 234 233 233 233 233 234 235 237 239 239 238 234 232 228
195 205 206 206 206 206 209 209 206 209 210 210 206 205 210 211 215 218 213 213 216 218 222 225 217 208 222 233 241 230 207 222 233 226 223 219 218 221 222 209 201 210 196 190 211 230 252 275 259 221 235 232 240 240 242 238 240 232 227 243 237 237 231 225 229 238 237 232 231 231 234 235 235 233 233 234 232 232 232 233 234 235 233 230 227
202 201 208 206 208 207 211 211 209 209 211 208 207 207 210 211 215 217 216 217 219 221 223 226 220 216 222 226 240 230 207 225 234 234 221 222 220 221 229 216 215 219 214 210 215 210 238 254 271 242 235 242 250 253 213 236 240 238 238 237 234 238 233 235 239 239 245 239 234 233 234 236 237 235 234 234 233 232 231 230 231 232 232 229 226
203 201 205 205 207 212 215 215 212 212 210 209 210 210 208 207 213 217 218 219 222 224 225 225 220 220 225 229 236 227 218 219 235 237 232 233 223 229 230 223 214 204 223 227 216 224 229 254 265 280 220 248 266 243 212 216 247 260 252 240 250 244 237 244 236 236 227 229 221 225 231 233 233 232 231 232 232 232 231 230 230 230 230 229 226
201 204 205 208 212 214 217 215 215 213 211 211 212 212 212 211 213 214 216 218 222 224 226 225 227 224 228 230 231 221 224 224 231 236 237 235 231 239 234 232 204 204 225 224 220 225 233 253 262 252 270 240 226 269 226 215 240 242 264 272 260 220 220 228 248 239 231 240 236 229 228 221 226 228 226 228 229 230 229 227 226 226 227 227 225
205 208 206 210 214 214 218 217 218 213 211 212 213 213 213 213 213 215 215 215 217 224 227 226 226 229 228 230 227 222 222 226 228 236 224 238 235 246 245 222 210 210 229 230 218 227 236 243 248 270 262 268 247 236 257 234 256 251 221 230 261 266 243 212 219 236 233 233 245 239 229 233 239 234 231 226 227 230 230 227 222 220 221 223 222
207 209 210 211 214 218 220 218 218 213 213 215 213 211 212 215 215 218 217 216 215 220 225 227 229 231 233 231 230 227 228 233 231 231 227 223 226 241 249 222 220 216 233 232 232 226 238 240 258 257 267 265 259 267 258 239 232 253 256 183 241 252 266 260 230 212 231 236 242 245 238 220 230 231 214 215 219 223 227 220 218 215 218 217 217
208 207 210 213 214 217 219 219 218 215 216 219 216 209 207 211 212 217 220 222 222 224 227 230 230 229 232 234 236 236 233 232 231 230 231 228 226 231 247 231 223 215 225 235 232 231 237 250 247 253 261 260 257 253 259 255 257 261 246 219 239 254 266 261 256 210 206 231 243 247 247 221 229 241 224 229 221 212 218 198 209 209 213 212 213
207 207 206 212 215 217 218 217 217 218 220 221 216 207 209 209 209 214 218 222 221 224 226 231 236 234 233 233 239 238 234 235 235 233 231 229 229 234 240 242 233 223 231 232 239 235 243 244 256 247 247 266 264 256 257 265 256 244 250 234 240 249 248 264 276 316 205 215 229 244 259 232 206 240 240 238 228 220 221 214 212 212 213 209 210
209 206 209 212 217 218 219 219 220 220 224 224 214 209 208 208 209 216 218 220 219 222 225 227 235 237 237 235 234 235 234 232 231 232 229 230 231 233 237 240 239 235 231 234 244 247 237 247 252 250 252 257 266 256 256 255 261 260 232 233 231 233 243 242 247 255 222 190 232 250 258 230 202 228 245 238 227 224 224 222 211 211 212 211 208
209 208 212 213 216 216 218 221 225 222 225 222 214 211 209 207 208 212 223 221 220 223 224 226 232 236 238 239 242 236 239 235 235 235 239 236 224 228 234 239 242 238 236 238 238 241 250 253 257 260 247 259 264 258 248 254 256 263 260 238 223 227 233 245 242 249 205 183 213 246 257 236 195 227 237 237 226 223 227 223 214 211 213 210 208
211 213 215 216 216 214 216 220 226 226 225 224 213 212 211 208 207 203 222 223 225 227 227 227 229 232 233 237 240 244 236 233 234 232 234 237 243 226 222 223 231 240 236 235 239 243 243 248 253 258 257 246 256 260 257 250 252 253 254 257 245 238 232 234 247 247 143 166 206 251 269 238 208 225 239 238 215 220 222 216 209 211 211 210 208
208 212 215 216 217 216 216 218 223 227 227 221 214 211 211 208 206 200 214 223 227 231 231 231 232 233 234 232 238 243 243 238 235 229 230 235 236 238 239 236 226 226 223 222 222 225 226 228 240 247 255 253 256 260 262 256 250 250 250 256 259 256 264 255 116 96 51 241 226 214 252 260 202 218 238 235 219 223 225 218 209 210 212 212 209
214 216 219 219 219 218 216 216 220 229 230 220 215 213 210 209 198 194 207 216 223 231 234 235 234 234 232 233 236 241 244 242 241 227 227 234 238 240 240 244 245 237 226 223 227 230 228 227 230 238 244 249 254 259 261 262 259 254 253 257 260 253 265 320 292 134 194 229 217 218 243 260 235 212 251 248 233 238 235 232 217 215 216 216 213
212 212 216 216 218 219 217 215 219 227 232 223 214 214 211 200 185 197 202 212 222 229 236 236 237 235 233 231 231 239 240 242 241 229 226 222 238 241 245 248 247 248 244 229 220 227 231 234 238 242 249 254 259 260 261 262 259 260 266 267 257 234 172 229 263 226 213 231 234 219 239 262 245 218 254 253 222 232 235 220 211 218 216 216 212
212 214 215 219 217 217 216 217 216 221 230 227 213 214 208 191 189 192 204 207 220 227 235 237 237 238 236 231 230 235 240 243 241 230 226 212 226 236 246 252 254 253 253 242 245 227 230 240 244 246 249 254 259 265 267 266 266 261 239 253 254 210 182 193 240 273 268 244 242 202 219 248 265 245 256 273 306 232 238 222 222 228 217 219 213
215 213 215 218 218 219 218 220 218 219 230 231 213 210 203 193 193 207 205 210 220 224 230 237 235 238 240 235 230 232 237 241 240 235 228 212 222 231 239 250 258 259 253 255 255 266 262 241 243 242 253 251 255 261 265 263 259 259 244 246 267 260 215 209 214 205 247 262 253 154 206 256 252 254 238 265 259 226 216 224 230 219 211 212 210